Regional Weather Roundup
Issued by NWS Kansas City/Pleasant Hill, MO

Home | Current Version | Previous Version | Text Only | Print | Product List | Glossary On
Versions: 1 2 3 4 5 6 7 8 9 10 11 12 13 14 15 16 17 18 19 20 21 22 23 24 25 26 27
000
ASUS43 KEAX 160810
RWREAX

WEATHER ROUNDUP FOR EASTERN KANSAS AND NORTHWEST MISSOURI
NATIONAL WEATHER SERVICE KANSAS CITY/PLEASANT HILL MO
300 AM CDT WED AUG 16 2017

KSZ040-057-103>105-MOZ028-029-037-043-160900-
...KANSAS CITY METROPOLITAN AREA...

CITY           SKY/WX    TMP DP  RH WIND       PRES   REMARKS
K.C. INTL      MOCLDY    76  71  85 SE12      29.83F
K.C. DOWNTOWN  CLOUDY    79  72  79 SE7       29.83S
LEES SUMMIT    CLOUDY    76  72  87 SE9       29.86S
OLATHE - IXD   CLOUDY    75  72  90 S9        29.85S
OLATHE - OJC   CLOUDY    74  73  97 S9        29.85S
LAWRENCE       CLOUDY    74  73  97 SE3       29.83S

$$

MOZ001>008-011>017-020>025-030>033-038>040-044>046-053-054-160900-
...NORTHERN AND CENTRAL MISSOURI...

CITY           SKY/WX    TMP DP  RH WIND       PRES   REMARKS
ST. JOSEPH     CLOUDY    76  72  87 SE8       29.84F
MOSBY          PTSUNNY   73  70  88 SE5       29.84F
WARRENSBURG    CLOUDY    73  70  88 SE5       29.87R
WHITEMAN AFB   MOCLDY    74  74 100 SE7       29.86S
CLINTON        CLOUDY    75  73  94 S7        29.87S
SEDALIA        CLEAR     73  73 100 SE6       29.89R
WARSAW         NOT AVBL
CHILLICOTHE      N/A     69  69 100 CALM      29.88S
KIRKSVILLE     CLEAR     68  67  96 SE7       29.89F

$$

MOZ041-047>049-056>058-063>065-088>090-097-160900-
...EASTERN AND SOUTHERN MISSOURI...

CITY           SKY/WX    TMP DP  RH WIND       PRES   REMARKS
ST. LOUIS INTL PTCLDY    77  72  84 S5        29.93R
SPIRIT OF STL  PTCLDY    73  72  96 CALM      29.92R
COLUMBIA       PTCLDY    73  71  93 SE6       29.91R
JEFFERSON CITY CLOUDY    75  74  96 E5        29.89R
ROLLA          CLOUDY    74  72  93 S9        29.93S
OSAGE BEACH    LGT RAIN  74  71  91 S13       29.92R
SPRINGFIELD    LGT RAIN  71  71 100 E13       29.92S
BRANSON        MOCLDY    72  72 100 CALM      29.93F
JOPLIN         CLOUDY    76  73  91 SE10      29.87F
WEST PLAINS    CLOUDY    75  74  96 CALM      29.96S FOG

$$

IAZ060-094-KSZ022-034>040-054-083-096-NEZ052-066-093-160900-
...KANSAS...SOUTHEAST NEBRASKA AND IOWA...

CITY           SKY/WX    TMP DP  RH WIND       PRES   REMARKS
TOPEKA         CLOUDY    77  74  90 SE8       29.82S
MANHATTAN      CLOUDY    77  72  84 S9        29.78F
EMPORIA        CLOUDY    73  68  84 S9        29.83S
CHANUTE        CLOUDY    73  69  87 SE7       29.85F
WICHITA        PTCLDY    72  71  97 S8        29.81F
OMAHA          CLOUDY    71  67  87 SE10      29.82F
LINCOLN        CLOUDY    70  68  93 E7        29.80F
FALLS CITY     CLOUDY    75  70  84 SE8       29.81F
LAMONI         PTCLDY    70  69  97 SE3       29.87F
DES MOINES     CLOUDY    70  68  93 E5        29.88R FOG

$$





USA.gov is the U.S. government's official web portal to all federal, state and local government web resources and services.